Location: Beuerbach
(48.1459°N, 10.9174°E)
Time: 02:15:48
(UTC+00:00)

Cosmos 1455 - Pass Details

Date: 11 August 2024
Orbit: 431 x 444 km, 82.5° (Epoch: 11 September)

Event Time Altitude Azimuth Distance (km) Brightness Sun altitude
Exits shadow 01:59:29 - 142° (SE) 2,474 5.5 -17.6°
Rises 01:59:32 0° 142° (SE) 2,456 5.5 -17.6°
Reaches altitude 10° 02:02:32 10° 113° (ESE) 1,584 4.9 -17.3°
Maximum altitude 02:04:06 13° 86° (E) 1,426 5.0 -17.1°
Drops below altitude 10° 02:05:41 10° 58° (ENE) 1,584 5.8 -16.9°
Sets 02:08:40 0° 29° (NNE) 2,456 7.2 -16.6°
